Location: Passau
(48.5830°N, 13.4830°E)
Time: 20:15:00
(UTC+02:00)

S-56A Canister/Altair - Pass Details

Date: 19 May 2024
Orbit: 637 x 2489 km, 38.9° (Epoch: 15 June)

Event Time Altitude Azimuth Distance (km) Brightness Sun altitude
Rises 06:47:57 0° 203° (SSW) 5,776 11.6 12.4°
Reaches altitude 10° 06:53:26 10° 189° (S) 4,480 11.2 13.3°
Maximum altitude 07:00:52 20° 150° (SSE) 3,269 11.0 14.5°
Drops below altitude 10° 07:06:51 10° 108° (ESE) 3,492 12.1 15.5°
Sets 07:10:22 0° 92° (E) 4,162 12.9 16.0°
